TITAN 3C TRANSTAGE DEB, 2789

Orbit data source: Space-Track

TITAN 3C TRANSTAGE DEB, 2789 is space debris in LEO originally from a launch on Fri, 15 Oct 1965 UTC launched from the Air Force Eastern Test Range (AFETR). Debris objects in space refer to the collection of defunct objects orbiting the Earth. Examples of debris include non-operational satellites, rocket bodies, and fragments generated from explosions, collisions, or faulty payload assembly.

Not visible in the next 10 days
Identifier
2789, 1965-082KR
Orbit
LEO
Country
Flag of USUS
Related business
Manufacturer
Unknown
Mission
Spacecraft
Bus & Motor
Unknown
Mass
Unknown
Launch date (UTC)
1965-10-15 (60 years ago)
Launch vehicle
Unknown
Launch site
Air Force Eastern Test Range (AFETR)
Object type
Payload
Rocket body
Debris
Shape & HBR
Unknown shape, 0.1 m
Radar Cross Section
Small (<0.1 m²)

Expand to show TLE details & history
Last TLE update: 1 day ago

TLE from 1 day ago
0 TITAN 3C TRANSTAGE DEB
1  2789U 65082KR  25308.60954845  .00420210  00000-0  47080-2 0  9996
2  2789  32.2595  57.3822 0024908  59.9519 300.3624 15.59951238 47245
Epoch: 2025-11-04T14:37Z
TLE epoch observation values (Epoch: 2025-11-04T14:37:44.986Z)
Latitude
0.00002°
Longitude
153.85068°
Altitude
377.917 km
Speed
7.69 km/s
True Right ascension
03h 49m 31s
True Declination
0° 00' 00"
Sunlit
Object was in full shadow at epoch
Visualization orbit readout
Latitude
Unknown
Longitude
Unknown
Altitude
Unknown
Speed
Unknown
Apparent Right ascension
Unknown
Apparent Declination
Unknown
Sunlit
N/A
Visualization observer readout
Local Sidereal Time
11:46:30
Azimuth
Unknown
Elevation
Unknown
Doppler factor
Unknown
Orbital elements
Apogee altitude
408.393 km
Perigee altitude
374.67 km
Semi-major axis
6,769.668 km
Eccentricity
0.00249
Inclination
32.2595°
RAAN
57.3822°
Arg. of periapsis
59.9519°
True anomaly
300.11574°
Mean anomaly
300.3624°
Eccentric anomaly
300.23911°
Mean motion
3.89666 °/min
Orbital period
92.39 mins
BSTAR
0.004708

Documentation

Showing up to 5 results
|